Preview of NWS' New Version of Forecast
This preview is not operational and should not be used for support decisions.

Regional Weather Roundup (RWR)

Issued by National Weather Service (NWS)

                            
000
ASCA42 TJSJ 190210
RWRPR 
PUERTO RICO/U.S. VIRGIN ISLANDS HOURLY WEATHER ROUNDUP
NATIONAL WEATHER SERVICE SAN JUAN PR
1000 PM AST MON FEB 18 2019

PRZ001>002-007>008-010-190300-
PUERTO RICO
  
CITY           SKY/WX    TMP DP  RH WIND       PRES   REMARKS
SAN JUAN LMM   PTCLDY    77  66  69 E10       30.17R                  
AGUADILLA      PTCLDY    75 N/A N/A E10       30.17R                  
CEIBA          PTCLDY    73  66  78 E9        30.18R                  
$$

VIZ001>002-190300-
U.S. VIRGIN ISLANDS
  
CITY           SKY/WX    TMP DP  RH WIND       PRES   REMARKS
CHARLOTTE AMA  CLEAR     77  66  69 E9        30.16R                  
CHRISTIANSTED  PTCLDY    79  70  73 E10G21    30.16R                  
$$

HOURLY WEATHER ROUNDUP FOR THE NEWS MEDIA
  
CITY           SKY/WX    TMP DP  RH WIND       PRES   REMARKS
ORLANDO        CLOUDY    72  64  76 N18       30.17R                  
NEW YORK       FAIR      30  15  53 NW20G30   30.24R WCI  17          
NEWARK         FAIR      29  14  53 NW13G23   30.25R WCI  19          
CHICAGO        MOCLDY    21  13  71 NW6       30.51R WCI  13          
HARTFORD       CLOUDY    29  26  89 VRB7      30.07R WCI  22          
BOSTON         FAIR      29  17  61 NW13G24   30.10R WCI  19          
DALLAS         CLOUDY    40  22  48 NE10      30.29S WCI  33          
PHILADELPHIA   MOCLDY    34  21  59 N12       30.28R WCI  25          
LOS ANGELES    PTCLDY    54  31  41 VRB5      30.03R                  
WASHINGTON DC  MOCLDY    37  21  52 NW20      30.30R WCI  27